Powrót do katalogu

STARLINK-3540

AktywnyŁącznośćVLEO
NORAD 51719·PAYLOAD·🇺🇸 United States

Wystrzelony Feb 21, 2022 z Cape Canaveral Space Force Station

Loading…

Następne Przeloty (najbliższe 24 godziny)

TLE

ŚwieżeSource: CelesTrak SupGP

Epoka: Sep 15, 2026, 01:30 UTC

1 51719C 22016F   26258.06298611 -.00033648  00000+0 -96314-3 0  2589
2 51719  53.1594 189.4780 0001455  78.8777 256.7617 15.35400562    14

Śledź STARLINK-3540 w czasie rzeczywistym z AllMySat

Download on the App Store